Regional Weather Roundup
Issued by NWS Grand Forks, ND

Home | Current Version | Previous Version | Text Only | Print | Product List | Glossary Off
Versions: 1 2 3 4 5 6 7 8 9 10 11 12 13 14 15 16 17 18 19 20 21 22 23 24 25 26 27 28 29 30 31 32 33 34 35 36 37 38 39 40 41 42 43 44 45 46 47 48 49 50

000
ASUS43 KFGF 011610
RWRFGF
PRAIRIE TO PINES  WEATHER ROUNDUP
NATIONAL WEATHER SERVICE EASTERN NORTH DAKOTA/GRAND FORKS ND
1000 AM CST SUN FEB 01 2015

 **SATELLITE DATA USED TO AUGMENT SKY COVER AT AUTOMATED STATIONS**
 *****  WEATHER ACROSS EASTERN NORTH DAKOTA  *****

CITY           SKY/WX    TMP DP  RH WIND       PRES   REMARKS
GRAND FORKS    PTSUNNY   -9 -19  61 N12       30.59R WCI -28
GRAND FRKS AFB MOSUNNY  -10 -21  58 N9        30.58S WCI -27
GRAND FRKS NWS   N/A     -9 N/A N/A N13         N/A  WCI -30
DEVILS LAKE    MOSUNNY  -11 -20  64 NW6       30.50F WCI -25
FARGO          MOSUNNY   -6 -15  65 N18       30.52S WCI -29
WAHPETON ARPT  MOSUNNY    0 -11  60 N20       30.47R WCI -22
$$

 ***** WEATHER ACROSS CENTRAL AND WESTERN NORTH DAKOTA  *****

CITY           SKY/WX    TMP DP  RH WIND       PRES   REMARKS
BISMARCK       MOSUNNY   -6 -18  56 N8        30.52F WCI -21
MINOT          MOSUNNY   -8 -16  67 VRB5      30.49F WCI -19
JAMESTOWN      MOSUNNY   -8 -17  64 N13       30.49R WCI -28
MINOT AFB      MOSUNNY   -8 -16  68 W5        30.50R WCI -19
GARRISON         N/A     -9 -16  71 NW9       30.49R WCI -26
WILLISTON      MOSUNNY   -8 -14  74 SW3       30.49F
DICKINSON      MOSUNNY  -10 -13  86 CALM      30.39S
HETTINGER      MOSUNNY   -3  -9  75 NW9       30.41R WCI -19
$$

 *****  OTHER AIRPORT OBSERVATIONS IN OUR AREA  *****

CITY           SKY/WX    TMP DP  RH WIND       PRES   REMARKS
WALHALLA         N/A     -9 -18  64 W6        30.58F WCI -23
GRAFTON AIRPOR NOT AVBL
VALLEY CITY AR FAIR      -8 -15  71 N13       30.50R WCI -28
CANDO          FAIR      -9 -20  59 N6        30.52S WCI -23
CAVALIER APRT  FAIR      -9 -18  64 NW6       30.59F WCI -23
GWINNER        MOSUNNY    0 -13  55 N24       30.47R WCI -24
SHEYENNE NWR     N/A     -7 -19  57 N14       29.95S WCI -28
ROLLA          FAIR     -11 -20  64 SW5       30.46S WCI -23
 ***** THE ABOVE OBSERVATIONS ARE NON NWS ARE NOT QUALITY
       CONTROLLED AND MAY MIS-REPORT RAIN FOR SNOW...
$$

  *****  WEATHER ACROSS NORTHERN MINNESOTA  *****

CITY           SKY/WX    TMP DP  RH WIND       PRES   REMARKS
FLAG ISLAND    MOSUNNY  -20 -26  76 NW7       30.50F WCI -37
WARROAD        MOSUNNY  -18 -26  69 CALM      30.51S
ROSEAU         MOSUNNY  -15 -22  70 CALM      30.53S
HALLOCK        MOSUNNY  -11 -20  64 NW5       30.58S WCI -23
THF RVR FALLS  MOSUNNY  -11 -15  84 N7        30.51S WCI -26
BAUDETTE       MOSUNNY  -16 -22  74 NW6       30.49R WCI -31
WASKISH        MOSUNNY   -9 -17  70 CALM      30.47S
CROOKSTON      SUNNY     -9 -17  70 N9        30.57S WCI -27
STEPHEN NDAWN    N/A    -11 -20  64 N7          N/A  WCI -26
GREENBUSH NDAW   N/A    -15 -22  70 N5          N/A  WCI -27
$$
  *****  WEATHER ACROSS CENTRAL AND WEST MINNESOTA  *****

CITY           SKY/WX    TMP DP  RH WIND       PRES   REMARKS
FOSSTON        MOSUNNY   -9 -17  70 NE8       30.48R WCI -26
BEMIDJI        MOSUNNY  -11 -17  71 N6        30.44R WCI -24
PARK RAPIDS    MOSUNNY   -5 -16  59 N10G16    30.39R WCI -23
ELBOW LAKE     FAIR       2  -8  63 N13       30.38R WCI -16
WADENA         CLOUDY    -2 -11  65 N10       30.37R WCI -19
DETROIT LAKES  SUNNY     -4 -15  59 N6        30.43R WCI -16
MOORHEAD       SUNNY     -6 -11  77 N18       30.51R WCI -29
FERGUS FALLS   MOSUNNY    0 -17  46 N8        30.46R WCI -15
MORRIS MN      MOSUNNY    7  -2  66 N18       30.36R WCI -12
STAPLES        CLOUDY     0  -8  71 N8        30.37R WCI -15
$$
  *****  WEATHER ELSEWHERE ACROSS MINNESOTA  *****

CITY           SKY/WX    TMP DP  RH WIND       PRES   REMARKS
DULUTH         MOSUNNY   -1 -13  56 N13       30.33R WCI -19
INTRNTL FALLS  MOSUNNY  -13 -20  71 NE5       30.47S WCI -25
ELY            PTSUNNY  -13 -18  77 N3        30.39F
CLOQUET        PTSUNNY    0  -9  65 N9G16     30.34R WCI -16
WHEATON        PTSUNNY   -2 -11  65 NW20      30.45R WCI -25
BRAINERD       MOSUNNY    2  -7  66 N10       30.36S WCI -14
HIBBING        MOSUNNY   -7 -18  59 N9        30.39S WCI -24
ALEXANDRIA     MOSUNNY    3  -5  69 N14       30.33R WCI -15
SAINT CLOUD    CLOUDY     7  -1  70 N13       30.30S WCI  -9
MINNEAPOLIS    CLOUDY    13   2  61 NE15      30.25R WCI  -3
$$

  *****  WEATHER ACROSS SOUTH DAKOTA  *****

CITY           SKY/WX    TMP DP  RH WIND       PRES   REMARKS
SIOUX FALLS    LGT SNOW   6   1  80 N22       30.21R VSB 3/4 WCI -15
BROOKINGS      NOT AVBL
WATERTOWN      CLOUDY    -1  -7  75 N20       30.29R WCI -23
HURON          LGT SNOW   0  -6  76 N21G31    30.38R WCI -22
SISSETON         N/A     -3 -11  68 N22       30.43R WCI -27
ABERDEEN       CLOUDY     0 -10  63 N22       30.45R WCI -23
MITCHELL       MIX PCPN   1  -4  79 N26       30.35R WCI -23
PIERRE         LGT SNOW  -2  -8  76 NW21      30.44R VSB 1   WCI -25
MOBRIDGE       LGT SNOW  -2 -10  69 N15       30.44S VSB 1   WCI -22
RAPID CITY     SUNNY      2  -2  83 N16       30.35R WCI -18
$$

  *****  SOME WEATHER IN NEARBY STATES *****

CITY           SKY/WX    TMP DP  RH WIND       PRES   REMARKS
GLASGOW MT     MOSUNNY   -5 -10  79 E9        30.40F WCI -22
GREAT FALLS MT PTCLDY     5   3  91 CALM      30.16F
CHEYENNE WY    CLOUDY    14  10  84 N10       30.10R WCI   1
SCOTTSBLUFF NE CLOUDY    16   8  71 NW23G31   30.25R WCI  -2
OMAHA NE       SNOW      20  17  88 N31G37    29.97R VSB 1/2 WCI   1
DES MOINES IA  SNOW      29  25  85 NE22G28   29.84R VSB 1/2 WCI  15
DAVENPORT IA   LGT SNOW  27  24  89 NE21      29.82S VSB 3/4 WCI  13
CHICAGO IL     HVY SNOW  29  27  92 NE18      29.90F VSB 1/4 WCI  16
EAU CLAIRE WI  CLOUDY    11   1  64 NE13G21   30.22R WCI  -4
LA CROSSE WI   LGT SNOW  16   9  74 N10G20    30.13F WCI   4
$$

  *****  SOME NATIONAL WEATHER *****

CITY           SKY/WX    TMP DP  RH WIND       PRES   REMARKS
LA GUARDIA NY  PTSUNNY   33  19  56 NW12      30.21F WCI  24
RALEIGH NC     CLOUDY    47  23  38 SW9       30.26F
ATLANTA GA     CLOUDY    54  41  62 S13       30.17S
NEW ORLEANS LA PTSUNNY   68  62  81 S8        30.02S
OKLAHOMA CITY  CLOUDY    36  28  73 NW31G39   30.00R
ALBUQUERQUE NM MOSUNNY   35  31  85 E3        30.13R
SALT LAKE CITY MOSUNNY   32  28  85 SE7       30.23R
LOS ANGELES CA MOSUNNY   54  47  77 E5        30.09R
BOISE ID       CLOUDY    36  24  62 SE8       30.17S
SEATTLE WA     LGT RAIN  43  41  93 CALM      30.03S FOG
$$

*** WEATHER ACROSS MANITOBA...SASKATCHEWAN AND ONTARIO ***
                ***ONTARIO***

CITY           SKY/WX    TMP DP  RH WIND       PRES   REMARKS
GERALDTON      MOSUNNY  -17 -22  76 SW5       30.37F WCI -29
THUNDER BAY    MOSUNNY  -11 -20  64 SW7       30.49S WCI -26
SIOUX LOOKOUT  MOSUNNY  -20 -26  76 NW6       30.43F WCI -36
TORONTO        PTSUNNY   10   0  61 N14       30.26F WCI  -5
BIG TROUT LK   SUNNY    -22 -29  69 W14       30.32S WCI -47
PICKLE LAKE    SUNNY    -20 -29  63 W9        30.35F WCI -40
DRYDEN         SUNNY    -18 -24  76 VRB2      30.43F
KENORA         SUNNY    -20 -26  76 N5        30.46F WCI -33
$$
                *** MANITOBA***

CITY           SKY/WX    TMP DP  RH WIND       PRES   REMARKS
BRANDON        PTSUNNY  -17 -24  70 W12       30.52F WCI -38
DAUPHIN        FLURRIES -13 -22  64 W13       30.50F WCI -34
ISLAND LAKE    SUNNY    -24 -31  69 W6        30.39F WCI -40
PILOT MOUND      N/A    -18 -26  69 W3          N/A
THE PAS        PTCLDY   -22 -27  76 SW3       30.41F
THOMPSON       CRYSTALS -24 -31  69 W7        30.33F WCI -42
WINNIPEG       SUNNY    -15 -24  64 W6        30.60S WCI -29
LYNN LAKE      MOCLDY   -24 -29  76 SW7       30.23F WCI -42
CHURCHILL      CLEAR    -26 -33  68 W10       30.23F WCI -48
GILLAM         PTCLDY   -24 -31  69 W13       30.29F WCI -48
$$
                ***SASKATCHEWAN***

CITY           SKY/WX    TMP DP  RH WIND       PRES   REMARKS
ESTEVAN        MOSUNNY   -8 -13  77 W6        30.46F WCI -21
KINDERSLEY     PTCLDY    -8 -13  77 S12       30.24F WCI -27
LLOYDMINSTER   PTCLDY    -4  -8  84 SW9       30.18F WCI -20
PRINCE ALBERT  CLOUDY   -17 -22  76 NE3       30.33F
REGINA         MOSUNNY   -9 -13  84 S7        30.41F WCI -24
YORKTON        SUNNY    -17 -24  70 S7        30.42F WCI -33
N. BATTLEFORD  CLEAR     -2  -6  84 SE2       30.30F
LA RONGE       PTCLDY   -31 -36  75 CALM      30.29F
SASKATOON      MOCLDY    -8 -13  77 S8        30.34F WCI -23
SWIFT CURRENT  CLEAR      0  -4  85 S10       30.23F WCI -17
$$
NOTE: THESE ARE AUTOMATED STATIONS WITH LIMITED QUALITY CONTROL
      "FAIR" INDICATES FEW OR NO CLOUDS BELOW 12,000 FEET WITH NO
      SIGNIFICANT WEATHER AND/OR OBSTRUCTIONS TO VISIBILITY.
      SKY/WX - SKY CONDITION AND SIGNIFICANT WEATHER.
      TMP - AIR TEMPERATURE.    DP   - DEWPOINT TEMPERATURE.
      RH  - RELATIVE HUMIDITY.  PRES - PRESSURE.
      HX  - HEAT INDEX.         WCI  - WIND CHILL INDEX.
$


USA.gov is the U.S. government's official web portal to all federal, state and local government web resources and services.